User: anonymous   Login
Location: Caltech
(34.1382°N, 118.1253°W)
Time: 13:25:07
(UTC-07:00)
Language:

SO-50 - Orbit

View from above orbital plane
View from above orbital plane
View from above satellite
View from above satellite

Ground track
Ground track

The orbit data is extracted from the following two-line orbital elements,

1 27607U 02058C   18109.92172855 -.00000009  00000-0  19531-4 0  9998
2 27607  64.5545 268.1298 0058594 341.6999  18.1993 14.75440036824369
Epoch (UTC): 19 April 2018 22:07:17
Eccentricity: 0.0058594
inclination: 64.5545°
perigee height: 602 km
apogee height: 685 km
right ascension of ascending node: 268.1298°
argument of perigee: 341.6999°
revolutions per day: 14.75440036
mean anomaly at epoch: 18.1993°
orbit number at epoch: 82436

The dashed part of the orbit path shows where the satellite is in the earth's shadow,  

DLR